Location: Hamayl? Da??
(36.7028°N, 30.1716°E)
Time: 01:17:53
(UTC+00:00)

Cosmos 1867 - Pass Details

Date: 04 August 2024
Orbit: 772 x 802 km, 65.0° (Epoch: 18 September)

Event Time Altitude Azimuth Distance (km) Brightness Sun altitude
Rises 20:04:29 0° 335° (NNW) 3,317 8.0 -29.3°
Reaches altitude 10° 20:07:01 10° 341° (NNW) 2,382 6.9 -29.5°
Enters shadow 20:11:35 44° 32° (NNE) 1,089 4.3 -30.0°
